Location: ???????
(55.8860°N, 38.0932°E)
Time: 16:57:46
(UTC+00:00)

Cosmos 1743 - Pass Details

Date: 14 April 2024
Orbit: 475 x 491 km, 82.5° (Epoch: 24 May)

Event Time Altitude Azimuth Distance (km) Brightness Sun altitude
Rises 00:17:42 0° 338° (NNW) 2,597 6.6 -15.7°
Reaches altitude 10° 00:20:09 10° 323° (NW) 1,706 5.4 -15.5°
Maximum altitude 00:23:03 22° 272° (W) 1,134 4.0 -15.2°
Enters shadow 00:23:14 22° 268° (W) 1,137 4.0 -15.2°
